[[{"header":{"parameterUnit":"m.s-1","parameterCategory":1,"la1":30.2992,"la2":30.254,"lo1":-89.0895,"lo2":-89.0443,"dy":0.0025,"dx":0.0025,"nx":19,"ny":19,"refTime":"2026-05-17T21:00:00:Z","depth":0,"parameterNumber":2,"parameterNumberName":"U-component_of_WINDS"},"data":[0,0,0,-5.5323,-5.5327,-5.5517,-5.5518,-5.577,-5.5772,0,0,0,0,0,0,0,0,0,0,0,-5.5273,-5.5275,-5.5323,-5.5328,-5.5517,-5.5518,-5.577,-5.5772,0,0,0,0,0,0,0,0,0,0,0,-5.5272,-5.5275,-5.5277,-5.5328,-5.5517,-5.5518,-5.5769,-5.5622,0,0,0,0,0,0,0,0,0,0,-5.5436,-5.5397,-5.5274,-5.5277,-5.5329,-5.5517,-5.5518,-5.5615,-5.5632,-5.5689,0,-5.5742,0,-5.5761,-5.579,-5.5791,0,0,0,-5.5322,-5.5383,-5.5429,-5.5278,-5.5331,-5.5516,-5.543,-5.5624,-5.5643,-5.571,-5.5745,-5.5754,-5.5765,-5.5792,-5.5793,-5.614,-5.6141,0,0,-5.5312,-5.5311,-5.5416,-5.5441,-5.5413,-5.5424,-5.5436,-5.5635,-5.5673,-5.5746,-5.576,-5.577,-5.5794,-5.5796,-5.6138,-5.614,0,0,0,-5.5285,-5.5304,-5.5344,-5.5431,-5.5465,-5.543,-5.5444,-5.5664,-5.5677,-5.5763,-5.5773,-5.5795,-5.5798,-5.6136,-5.6139,-5.6228,0,0,0,-5.5279,-5.5288,-5.534,-5.5341,-5.5461,-5.5567,-5.5468,-5.5663,-5.5686,-5.5771,-5.5795,-5.5801,-5.6134,-5.6137,-5.6221,-5.6269,0,0,0,-5.5259,-5.5286,-5.5315,-5.534,-5.5422,-5.5564,-5.5588,-5.5668,-5.5692,-5.5791,-5.5801,-5.6133,-5.6137,-5.6215,-5.6259,-5.6358,0,0,0,-5.5237,-5.5392,-5.5317,-5.5495,-5.542,-5.5618,-5.5587,-5.5734,-5.583,-5.5796,-5.6134,-5.6139,-5.6213,-5.6253,-5.6351,-5.6439,-5.6476,0,0,-5.5432,-5.5416,-5.5521,-5.5459,-5.5669,-5.5589,-5.5813,-5.5902,-5.5913,-5.6063,-5.6072,-5.6223,-5.6258,-5.6356,-5.669,-5.6719,0,0,0,-5.5582,-5.5657,-5.5713,-5.5804,-5.5877,-5.5942,-5.5997,-5.603,-5.6158,-5.599,-5.6287,-5.6308,-5.6366,-5.6407,-5.6433,-5.6481,-5.6159,-5.6158,-5.6158,-5.5855,-5.5861,-5.6034,-5.6063,-5.6152,-5.6208,-5.628,-5.6333,-5.6314,-5.6384,-5.6427,-5.6629,-5.6678,-5.6697,-5.6747,-5.6477,-5.6477,-5.6477,-5.6478,-5.6139,-5.6245,-5.6216,-5.6373,-5.6379,-5.6511,-5.6571,-5.6552,-5.6675,-5.6597,-5.6648,-5.6558,-5.6729,-5.6773,-5.6484,-5.6483,-5.6482,-5.6482,-5.6481,-5.6316,-5.6367,-5.6406,-5.6538,-5.6639,-5.6664,-5.6783,-5.6785,-5.6787,-5.6838,-5.6883,-5.6881,-5.6877,-5.686,-5.6861,-5.6861,-5.6862,-5.6863,-5.6863,-5.6482,-5.6523,-5.6623,-5.6714,-5.6772,-5.6849,-5.6908,-5.6965,-5.7029,-5.7021,-5.7021,-5.6992,-5.6746,-5.6681,-5.6874,-5.6872,-5.687,-5.6869,-5.6869,-5.6763,-5.67,-5.6855,-5.6913,-5.7019,-5.7119,-5.7121,-5.7238,-5.7286,-5.7344,-5.7307,-5.7125,-5.7108,-5.7088,-5.7034,-5.7306,-5.7306,-5.7306,-5.7307,-5.6909,-5.6901,-5.7059,-5.7153,-5.7245,-5.7263,-5.7436,-5.7484,-5.7523,-5.7553,-5.7515,-5.7446,-5.7426,-5.742,-5.7393,-5.7343,-5.7688,-5.7688,-5.7689,-5.708,-5.7082,-5.7229,-5.7267,-5.735,-5.7422,-5.7585,-5.7693,-5.7725,-5.7704,-5.7576,-5.756,-5.7448,-5.7412,-5.7384,-5.7342,-5.7251,0,0]},{"header":{"parameterUnit":"m.s-1","parameterCategory":1,"la1":30.2992,"la2":30.254,"lo1":-89.0895,"lo2":-89.0443,"dy":0.0025,"dx":0.0025,"nx":19,"ny":19,"refTime":"2026-05-17T21:00:00:Z","depth":0,"parameterNumber":3,"parameterNumberName":"V-component_of_WINDS"},"data":[0,0,0,2.915,2.915,2.9164,2.9164,2.9197,2.9197,0,0,0,0,0,0,0,0,0,0,0,2.9155,2.9155,2.915,2.915,2.9164,2.9164,2.9197,2.9197,0,0,0,0,0,0,0,0,0,0,0,2.9155,2.9155,2.9156,2.915,2.9164,2.9164,2.9197,2.9181,0,0,0,0,0,0,0,0,0,0,2.9165,2.9178,2.9155,2.9156,2.9151,2.9164,2.9164,2.918,2.9182,2.9197,0,2.9213,0,2.9206,2.9201,2.9201,0,0,0,2.9144,2.9177,2.9172,2.9156,2.9151,2.9164,2.9156,2.9181,2.9183,2.92,2.9213,2.9214,2.9206,2.9201,2.9201,2.9312,2.9313,0,0,2.9143,2.9162,2.9171,2.9174,2.9173,2.9155,2.9156,2.9182,2.9198,2.9214,2.9215,2.9207,2.9201,2.9202,2.9311,2.9313,0,0,0,2.9145,2.9162,2.9156,2.9173,2.9175,2.9156,2.9157,2.9197,2.9193,2.9215,2.9207,2.9201,2.9202,2.9311,2.9312,2.9372,0,0,0,2.9144,2.9163,2.9156,2.9168,2.9175,2.9186,2.9172,2.9192,2.9194,2.9207,2.9201,2.9202,2.931,2.9311,2.9368,2.9396,0,0,0,2.9151,2.9164,2.9169,2.9169,2.9176,2.9185,2.9183,2.9192,2.919,2.9201,2.9203,2.9309,2.9311,2.9365,2.9391,2.9431,0,0,0,2.9163,2.9222,2.917,2.9233,2.9176,2.9222,2.9182,2.9216,2.9232,2.9202,2.931,2.9312,2.9364,2.9387,2.9428,2.9468,2.9486,0,0,2.9248,2.9232,2.9268,2.9222,2.9282,2.9218,2.9287,2.9284,2.9268,2.9299,2.9301,2.9369,2.939,2.943,2.9586,2.9601,0,0,0,2.9301,2.9327,2.9339,2.9356,2.9355,2.9357,2.9342,2.9341,2.9366,2.9288,2.9394,2.9406,2.9429,2.9447,2.946,2.9478,2.9321,2.9321,2.9321,2.9447,2.9424,2.9481,2.9459,2.9477,2.9461,2.9472,2.9469,2.9439,2.9465,2.9473,2.9571,2.9593,2.9602,2.9622,2.9494,2.9494,2.9494,2.9494,2.9569,2.9601,2.9562,2.9603,2.9578,2.9613,2.96,2.9579,2.9607,2.9562,2.9581,2.9533,2.962,2.9635,2.9498,2.9498,2.9497,2.9497,2.9496,2.9661,2.9673,2.9671,2.9694,2.9714,2.9691,2.972,2.9697,2.9674,2.9693,2.97,2.9698,2.9694,2.9698,2.9698,2.9699,2.9699,2.9699,2.9699,2.9757,2.9754,2.9781,2.9787,2.9795,2.9803,2.9789,2.9797,2.9799,2.978,2.978,2.9748,2.9633,2.9604,2.9705,2.9704,2.9703,2.9703,2.9702,2.9887,2.9854,2.9897,2.9906,2.9911,2.9933,2.9903,2.9921,2.9924,2.994,2.9905,2.9824,2.9806,2.9796,2.9772,2.991,2.991,2.991,2.991,2.9965,2.9954,2.9993,3.0008,3.0021,2.9998,3.0048,3.0039,3.0023,3.0024,3.0001,2.9967,2.9958,2.9946,2.9932,2.9909,3.0079,3.0079,3.008,3.0043,3.0033,3.008,3.0065,3.0067,3.0071,3.0117,3.0136,3.0112,3.0086,3.0024,3.0017,2.9962,2.9946,2.9917,2.9896,2.9854,0,0]}]]